Meteo pe oră la Czyzowek

Astăzi, 14 Aprilie, Miercuri

Timp Temperatura Precipitaţii Vânt Presiune Umiditate
00:00 +2°C° 0 mm 2 m/s 757 mmHg 76%
01:00 +2°C° 0 mm 2 m/s 757 mmHg 78%
02:00 +2°C° 0 mm 2 m/s 757 mmHg 79%
03:00 0°C° 0 mm 3 m/s 757 mmHg 81%
04:00 0°C° 0 mm 3 m/s 757 mmHg 83%
05:00 0°C° 0 mm 3 m/s 757 mmHg 82%
06:00 +1°C° 0 mm 3 m/s 757 mmHg 80%
07:00 0°C° 0 mm 4 m/s 757 mmHg 79%
08:00 +1°C° 0 mm 4 m/s 757 mmHg 73%
09:00 +3°C° 0 mm 4 m/s 757 mmHg 68%
10:00 +4°C° 0 mm 4 m/s 757 mmHg 62%
11:00 +5°C° 0.1 mm 4 m/s 757 mmHg 58%
12:00 +5°C° 0.1 mm 4 m/s 757 mmHg 53%
13:00 +6°C° 0.1 mm 5 m/s 756 mmHg 48%
14:00 +6°C° 0.1 mm 4 m/s 756 mmHg 47%
15:00 +6°C° 0.1 mm 4 m/s 756 mmHg 45%
16:00 +7°C° 0.1 mm 4 m/s 756 mmHg 44%
17:00 +5°C° 0.1 mm 3 m/s 756 mmHg 51%
18:00 +4°C° 0.1 mm 3 m/s 756 mmHg 58%
19:00 +4°C° 0.1 mm 2 m/s 756 mmHg 64%
20:00 +4°C° 0 mm 2 m/s 756 mmHg 68%
21:00 +3°C° 0 mm 2 m/s 756 mmHg 71%
22:00 +2°C° 0 mm 2 m/s 756 mmHg 74%
23:00 +2°C° 0 mm 2 m/s 756 mmHg 76%

Mâine, 15 Aprilie, Joi

Timp Temperatura Precipitaţii Vânt Presiune Umiditate
00:00 +2°C° 0 mm 2 m/s 756 mmHg 78%
01:00 +1°C° 0 mm 2 m/s 756 mmHg 79%
02:00 +1°C° 0 mm 2 m/s 756 mmHg 81%
03:00 +1°C° 0 mm 2 m/s 756 mmHg 84%
04:00 +1°C° 0 mm 2 m/s 756 mmHg 86%
05:00 +1°C° 0 mm 2 m/s 756 mmHg 84%
06:00 0°C° 0 mm 3 m/s 757 mmHg 81%
07:00 +1°C° 0 mm 3 m/s 757 mmHg 79%
08:00 +1°C° 0 mm 3 m/s 757 mmHg 76%
09:00 +1°C° 0 mm 4 m/s 757 mmHg 73%
10:00 +3°C° 0 mm 4 m/s 756 mmHg 70%
11:00 +3°C° 0.1 mm 4 m/s 756 mmHg 70%
12:00 +2°C° 0.1 mm 5 m/s 756 mmHg 69%
13:00 +2°C° 0.1 mm 5 m/s 756 mmHg 69%
14:00 +2°C° 0.2 mm 5 m/s 756 mmHg 76%
15:00 +1°C° 0.2 mm 5 m/s 756 mmHg 84%
16:00 +1°C° 0.2 mm 4 m/s 755 mmHg 92%
17:00 0°C° 0.5 mm 4 m/s 755 mmHg 94%
18:00 0°C° 0.5 mm 4 m/s 755 mmHg 95%
19:00 0°C° 0.5 mm 4 m/s 755 mmHg 97%
20:00 0°C° 0.5 mm 4 m/s 754 mmHg 97%
21:00 0°C° 0.5 mm 4 m/s 754 mmHg 97%
22:00 0°C° 0.5 mm 3 m/s 754 mmHg 97%
23:00 0°C° 0.5 mm 3 m/s 754 mmHg 98%

Poimâine, 16 Aprilie, Vineri

Timp Temperatura Precipitaţii Vânt Presiune Umiditate
00:00 0°C° 0.5 mm 3 m/s 754 mmHg 98%
01:00 +1°C° 0.5 mm 2 m/s 753 mmHg 98%
02:00 +2°C° 0.5 mm 2 m/s 753 mmHg 98%
03:00 +2°C° 0.5 mm 2 m/s 753 mmHg 98%
04:00 +2°C° 0.5 mm 2 m/s 753 mmHg 98%
05:00 +2°C° 0.5 mm 2 m/s 753 mmHg 98%
06:00 +2°C° 0.5 mm 2 m/s 754 mmHg 98%
07:00 +2°C° 0.5 mm 2 m/s 754 mmHg 98%
08:00 +3°C° 0.3 mm 2 m/s 754 mmHg 98%
09:00 +3°C° 0.3 mm 2 m/s 754 mmHg 97%
10:00 +3°C° 0.3 mm 2 m/s 754 mmHg 97%
11:00 +4°C° 0.1 mm 2 m/s 754 mmHg 94%
12:00 +4°C° 0.1 mm 2 m/s 754 mmHg 91%
13:00 +5°C° 0.1 mm 2 m/s 754 mmHg 89%
14:00 +5°C° 0.1 mm 2 m/s 754 mmHg 90%
15:00 +5°C° 0.1 mm 2 m/s 754 mmHg 91%
16:00 +5°C° 0.1 mm 2 m/s 754 mmHg 92%
17:00 +5°C° 0.1 mm 2 m/s 754 mmHg 94%
18:00 +5°C° 0.1 mm 1 m/s 754 mmHg 95%
19:00 +5°C° 0.1 mm 1 m/s 755 mmHg 96%
20:00 +5°C° 0.1 mm 1 m/s 755 mmHg 97%
21:00 +5°C° 0.1 mm 1 m/s 755 mmHg 98%
22:00 +5°C° 0.1 mm 1 m/s 755 mmHg 98%
23:00 +5°C° 0 mm 1 m/s 755 mmHg 98%

17 Aprilie, Sâmbătă

Timp Temperatura Precipitaţii Vânt Presiune Umiditate
00:00 +5°C° 0 mm 1 m/s 754 mmHg 98%
01:00 +5°C° 0 mm 1 m/s 754 mmHg 98%
02:00 +5°C° 0.1 mm 1 m/s 754 mmHg 98%
03:00 +5°C° 0.1 mm 1 m/s 754 mmHg 99%
04:00 +5°C° 0.1 mm 1 m/s 754 mmHg 99%
05:00 +5°C° 0.2 mm 1 m/s 754 mmHg 99%
06:00 +5°C° 0.2 mm 1 m/s 754 mmHg 99%
07:00 +5°C° 0.2 mm 1 m/s 754 mmHg 98%
08:00 +5°C° 0 mm 1 m/s 754 mmHg 98%
09:00 +6°C° 0 mm 1 m/s 755 mmHg 97%
10:00 +6°C° 0 mm 1 m/s 755 mmHg 96%
11:00 +7°C° 0 mm 1 m/s 754 mmHg 95%
12:00 +7°C° 0 mm 1 m/s 754 mmHg 93%
13:00 +7°C° 0 mm 2 m/s 754 mmHg 92%
14:00 +7°C° 0.1 mm 2 m/s 754 mmHg 93%
15:00 +8°C° 0.1 mm 1 m/s 754 mmHg 94%
16:00 +8°C° 0.1 mm 1 m/s 754 mmHg 95%
17:00 +8°C° 0.3 mm 1 m/s 754 mmHg 96%
18:00 +8°C° 0.3 mm 1 m/s 754 mmHg 97%
19:00 +7°C° 0.3 mm 1 m/s 754 mmHg 98%
20:00 +7°C° 0.2 mm 1 m/s 754 mmHg 98%
21:00 +7°C° 0.2 mm 1 m/s 754 mmHg 98%
22:00 +7°C° 0.2 mm 1 m/s 754 mmHg 98%
23:00 +7°C° 0 mm 1 m/s 754 mmHg 98%

18 Aprilie, Duminică

Timp Temperatura Precipitaţii Vânt Presiune Umiditate
00:00 +7°C° 0 mm 1 m/s 754 mmHg 98%
01:00 +7°C° 0 mm 1 m/s 753 mmHg 98%
02:00 +7°C° 0 mm 1 m/s 753 mmHg 98%
03:00 +7°C° 0 mm 1 m/s 753 mmHg 98%
04:00 +7°C° 0 mm 1 m/s 753 mmHg 98%
05:00 +7°C° 0 mm 1 m/s 753 mmHg 97%
06:00 +7°C° 0 mm 1 m/s 753 mmHg 96%
07:00 +8°C° 0 mm 1 m/s 753 mmHg 95%
08:00 +7°C° 0.4 mm 2 m/s 753 mmHg 94%
09:00 +8°C° 0.4 mm 2 m/s 753 mmHg 92%
10:00 +8°C° 0.4 mm 2 m/s 753 mmHg 90%
11:00 +9°C° 0.3 mm 2 m/s 753 mmHg 89%
12:00 +9°C° 0.3 mm 2 m/s 753 mmHg 88%
13:00 +10°C° 0.3 mm 1 m/s 753 mmHg 87%
14:00 +10°C° 0.2 mm 1 m/s 753 mmHg 87%
15:00 +10°C° 0.2 mm 1 m/s 753 mmHg 86%
16:00 +11°C° 0.2 mm 1 m/s 753 mmHg 85%
17:00 +10°C° 0.2 mm 1 m/s 753 mmHg 88%
18:00 +9°C° 0.2 mm 1 m/s 753 mmHg 91%
19:00 +8°C° 0.2 mm 1 m/s 753 mmHg 93%
20:00 +8°C° 0 mm 1 m/s 753 mmHg 94%
21:00 +6°C° 0 mm 0 m/s 753 mmHg 94%
22:00 +6°C° 0 mm 0 m/s 753 mmHg 95%
23:00 +6°C° 0 mm 0 m/s 753 mmHg 95%

19 Aprilie, Luni

Timp Temperatura Precipitaţii Vânt Presiune Umiditate
00:00 +6°C° 0 mm 0 m/s 753 mmHg 95%
01:00 +6°C° 0 mm 1 m/s 753 mmHg 95%
02:00 +6°C° 0 mm 1 m/s 752 mmHg 95%
03:00 +7°C° 0 mm 1 m/s 752 mmHg 94%
04:00 +7°C° 0 mm 1 m/s 752 mmHg 94%
05:00 +7°C° 0 mm 1 m/s 752 mmHg 93%
06:00 +8°C° 0 mm 1 m/s 752 mmHg 92%
07:00 +8°C° 0 mm 1 m/s 752 mmHg 91%
08:00 +9°C° 0.1 mm 1 m/s 752 mmHg 86%
09:00 +10°C° 0.1 mm 1 m/s 752 mmHg 82%
10:00 +11°C° 0.1 mm 1 m/s 752 mmHg 77%
11:00 +12°C° 0.3 mm 1 m/s 751 mmHg 74%
12:00 +12°C° 0.3 mm 2 m/s 751 mmHg 70%
13:00 +13°C° 0.3 mm 2 m/s 751 mmHg 66%
14:00 +12°C° 0.4 mm 2 m/s 750 mmHg 72%
15:00 +10°C° 0.4 mm 2 m/s 750 mmHg 78%
16:00 +10°C° 0.4 mm 2 m/s 750 mmHg 85%
17:00 +9°C° 0.1 mm 2 m/s 750 mmHg 88%
18:00 +9°C° 0.1 mm 2 m/s 750 mmHg 91%
19:00 +9°C° 0.1 mm 1 m/s 749 mmHg 94%
20:00 +9°C° 0.1 mm 1 m/s 749 mmHg 94%
21:00 +9°C° 0.1 mm 1 m/s 749 mmHg 94%
22:00 +9°C° 0.1 mm 1 m/s 749 mmHg 95%
23:00 +8°C° 0 mm 1 m/s 749 mmHg 95%
Arată mai mult

Formular de consimțământ

Meteoprog și furnizorii noștri de servicii pot stoca și accesa date personale, precum cookies, identificatori de dispozitiv sau alte tehnologii similare pe dispozitivul dumneavoastră și procesa astfel de date pentru a personaliza conținutul și reclamele, dar și pentru a oferi caracteristici de social media și pentru a analiza traficul.

  • Stocarea și/sau accesarea informațiilor pe dispozitivul dumneavoastră

    Cookies, identificatori de dispozitiv sau alte informații pot fi stocate sau accesate pe dispozitiv în scopurile indicate mai sus.

  • Reclame și conținut personalizat, evaluarea reclamelor și a conținutului, informații despre audiențe și dezvoltarea produselor

    Reclamele și conținutul pot fi personalizate pe baza unui profil. Pot fi adăugate date suplimentare pentru a personaliza mai bine reclamele și conținutul. Performanța reclamelor și conținutului poate fi măsurată. Pot fi obținute informații despre utilizatorii care au văzut reclamele și conținutul. Aceste date pot fi utilizate pentru a dezvolta sau îmbunătăți experiența utilizatorilor, sistemele și software-ul.

Dând clic pe ‘Sunt de acord’, permiteți utilizarea cookie-urilor menționate, a identificatorilor de dispozitiv, balizelor web sau altor tehnologii similare. Setările pot fi modificate din browser-ul dispozitivului dumneavoastră.

În anumite scopuri, interesele legitime pot prima asupra consimțământului. Puteți citi mai multe informații în acest sens în Politica privind Confidențialitatea Datelor și Cookie.